EW6393 Weather Reports


Display with metric or nautical units.
time (UTC)temp
F
wind
direction
speed
MPH
gust
MPH
rain 1hr
in
rain 24hr
in
rain mn
in
humidity
%
barometer
mb
20260906233140 81 199 2.0 6.0 0.00 0.00 0.00 31 1014.0
20260906232625 81 196 3.0 6.0 0.00 0.00 0.00 31 1014.0
20260906232127 81 128 2.0 6.0 0.00 0.00 0.00 30 1013.9
20260906231636 81 176 3.0 9.0 0.00 0.00 0.00 30 1013.9
20260906231137 81 207 3.0 9.0 0.00 0.00 0.00 30 1013.9
20260906230625 81 151 3.0 6.0 0.00 0.00 0.00 30 1014.0
20260906230127 81 206 2.0 7.0 0.00 0.00 0.00 30 1014.0
20260906225636 81 204 3.0 12.0 0.00 0.00 0.00 30 1014.0
20260906225138 81 200 7.0 13.0 0.00 0.00 0.00 29 1014.2
20260906224619 82 145 4.0 9.0 0.00 0.00 0.00 29 1014.3
20260906224149 82 229 4.0 9.0 0.00 0.00 0.00 29 1014.5
20260906223637 82 145 5.0 12.0 0.00 0.00 0.00 29 1014.5
20260906223118 82 217 3.0 17.0 0.00 0.00 0.00 30 1014.5
20260906222620 82 255 4.0 17.0 0.00 0.00 0.00 29 1014.6
20260906222129 82 181 4.0 9.0 0.00 0.00 0.00 29 1014.7
20260906221630 82 201 2.0 10.0 0.00 0.00 0.00 30 1014.7
20260906221139 82 207 4.0 13.0 0.00 0.00 0.00 29 1014.8
20260906220620 82 199 7.0 12.0 0.00 0.00 0.00 29 1014.7
20260906220129 82 210 5.0 12.0 0.00 0.00 0.00 30 1014.9
20260906215611 82 190 5.0 12.0 0.00 0.00 0.00 29 1015.0
20260906215114 82 208 2.0 9.0 0.00 0.00 0.00 30 1014.9
20260906214642 82 255 3.0 11.0 0.00 0.00 0.00 30 1014.9
20260906214150 82 157 4.0 16.0 0.00 0.00 0.00 29 1015.0
20260906213611 82 213 8.0 17.0 0.00 0.00 0.00 29 1015.0
20260906213114 82 146 6.0 17.0 0.00 0.00 0.00 29 1015.1
20260906212615 82 207 6.0 13.0 0.00 0.00 0.00 28 1015.0
20260906212124 83 195 5.0 14.0 0.00 0.00 0.00 29 1015.1
20260906211626 83 156 5.0 15.0 0.00 0.00 0.00 28 1015.0
20260906211137 83 234 3.0 15.0 0.00 0.00 0.00 30 1015.1
20260906210616 83 223 5.0 20.0 0.00 0.00 0.00 28 1014.9
20260906210125 83 200 6.0 20.0 0.00 0.00 0.00 28 1014.8
20260906205627 84 245 7.0 15.0 0.00 0.00 0.00 27 1014.9
20260906205129 84 111 4.0 10.0 0.00 0.00 0.00 27 1014.9
20260906204638 84 203 5.0 16.0 0.00 0.00 0.00 27 1015.0
20260906204139 85 174 6.0 13.0 0.00 0.00 0.00 26 1015.0
20260906203647 84 160 5.0 11.0 0.00 0.00 0.00 27 1015.2
20260906203134 83 198 2.0 13.0 0.00 0.00 0.00 28 1015.2
20260906202616 83 149 5.0 13.0 0.00 0.00 0.00 28 1015.2
20260906202118 83 195 5.0 21.0 0.00 0.00 0.00 27 1015.2
20260906201647 83 192 9.0 21.0 0.00 0.00 0.00 26 1015.2
20260906201128 84 156 5.0 16.0 0.00 0.00 0.00 27 1015.3
20260906200629 84 144 8.0 16.0 0.00 0.00 0.00 25 1015.4
20260906200138 84 135 5.0 14.0 0.00 0.00 0.00 26 1015.5
20260906195619 84 34 4.0 17.0 0.00 0.00 0.00 27 1015.6
20260906195128 83 210 5.0 17.0 0.00 0.00 0.00 27 1015.8
20260906194630 83 207 6.0 15.0 0.00 0.00 0.00 27 1015.8
20260906194112 83 165 7.0 14.0 0.00 0.00 0.00 27 1015.9
20260906193620 83 160 5.0 12.0 0.00 0.00 0.00 27 1015.9
20260906193122 83 225 5.0 12.0 0.00 0.00 0.00 27 1015.9
20260906192624 83 103 6.0 16.0 0.00 0.00 0.00 27 1016.1
20260906192133 83 166 9.0 16.0 0.00 0.00 0.00 26 1016.1
20260906191614 83 178 8.0 18.0 0.00 0.00 0.00 26 1016.1
20260906191116 83 186 5.0 18.0 0.00 0.00 0.00 27 1016.1
20260906190624 83 158 6.0 14.0 0.00 0.00 0.00 27 1016.3
20260906190126 83 240 5.0 14.0 0.00 0.00 0.00 27 1016.4
20260906185628 82 261 6.0 14.0 0.00 0.00 0.00 27 1016.4
20260906185118 82 190 5.0 13.0 0.00 0.00 0.00 28 1016.4
20260906184619 82 208 5.0 14.0 0.00 0.00 0.00 27 1016.5
20260906184121 83 139 7.0 17.0 0.00 0.00 0.00 25 1016.6
20260906183630 84 165 7.0 17.0 0.00 0.00 0.00 27 1016.6
20260906183112 83 210 5.0 13.0 0.00 0.00 0.00 26 1016.5
20260906182614 84 155 6.0 13.0 0.00 0.00 0.00 26 1016.7
20260906182116 83 148 4.0 16.0 0.00 0.00 0.00 26 1016.7
20260906181624 83 167 7.0 16.0 0.00 0.00 0.00 26 1016.9
20260906181127 83 106 5.0 13.0 0.00 0.00 0.00 26 1016.8
20260906180636 83 154 5.0 13.0 0.00 0.00 0.00 26 1016.8
20260906180118 84 171 4.0 8.0 0.00 0.00 0.00 26 1016.8
20260906175647 84 240 3.0 12.0 0.00 0.00 0.00 26 1016.9
20260906175128 83 166 2.0 12.0 0.00 0.00 0.00 27 1017.0
20260906174656 83 155 3.0 11.0 0.00 0.00 0.00 26 1017.0
20260906174117 83 349 3.0 10.0 0.00 0.00 0.00 26 1017.2
20260906173619 83 172 3.0 14.0 0.00 0.00 0.00 25 1017.2
20260906173121 82 235 4.0 14.0 0.00 0.00 0.00 26 1017.5
20260906172630 82 188 2.0 13.0 0.00 0.00 0.00 26 1017.3
20260906172131 82 121 6.0 13.0 0.00 0.00 0.00 24 1017.3
20260906171619 82 233 6.0 13.0 0.00 0.00 0.00 26 1017.3
20260906171121 82 239 3.0 10.0 0.00 0.00 0.00 26 1017.5
20260906170622 82 210 3.0 10.0 0.00 0.00 0.00 28 1017.5
20260906170133 81 217 4.0 14.0 0.00 0.00 0.00 27 1017.5
20260906165614 81 184 5.0 14.0 0.00 0.00 0.00 26 1017.7
20260906165122 81 160 8.0 14.0 0.00 0.00 0.00 26 1017.6
20260906164623 81 240 5.0 13.0 0.00 0.00 0.00 28 1017.6
20260906164132 81 210 7.0 12.0 0.00 0.00 0.00 26 1017.7
20260906163613 81 145 3.0 11.0 0.00 0.00 0.00 28 1017.7
20260906163114 81 201 3.0 11.0 0.00 0.00 0.00 29 1017.8
20260906162644 81 198 3.0 16.0 0.00 0.00 0.00 28 1017.8
20260906162152 80 269 5.0 16.0 0.00 0.00 0.00 29 1017.9
20260906161634 80 162 6.0 10.0 0.00 0.00 0.00 28 1018.1
20260906161142 79 232 3.0 10.0 0.00 0.00 0.00 30 1018.1
20260906160650 79 204 3.0 6.0 0.00 0.00 0.00 31 1018.1
20260906160111 79 286 2.0 6.0 0.00 0.00 0.00 32 1018.2
20260906155614 78 177 1.0 6.0 0.00 0.00 0.00 32 1018.3
20260906155122 78 277 1.0 6.0 0.00 0.00 0.00 32 1018.3
20260906154624 78 217 1.0 5.0 0.00 0.00 0.00 33 1018.3
20260906154132 78 286 2.0 5.0 0.00 0.00 0.00 33 1018.3
20260906153613 78 99 1.0 2.0 0.00 0.00 0.00 35 1018.4
20260906153135 77 216 1.0 3.0 0.00 0.00 0.00 35 1018.4
20260906152623 77 229 0.0 3.0 0.00 0.00 0.00 34 1018.4
20260906152125 76 195 0.0 4.0 0.00 0.00 0.00 35 1018.5
20260906151634 76 210 1.0 4.0 0.00 0.00 0.00 34 1018.4
20260906151115 76 134 1.0 4.0 0.00 0.00 0.00 34 1018.5
20260906150624 76 113 1.0 2.0 0.00 0.00 0.00 34 1018.4
20260906150112 75 116 1.0 3.0 0.00 0.00 0.00 34 1018.4
20260906145614 75 124 0.0 1.0 0.00 0.00 0.00 35 1018.5
20260906145115 74 57 0.0 1.0 0.00 0.00 0.00 35 1018.5
20260906144624 73 57 0.0 1.0 0.00 0.00 0.00 36 1018.3
20260906144127 72 38 0.0 1.0 0.00 0.00 0.00 38 1018.3
20260906143636 71 19 0.0 2.0 0.00 0.00 0.00 39 1018.4
20260906143138 70 18 0.0 1.0 0.00 0.00 0.00 40 1018.4
20260906142647 69 12 0.0 1.0 0.00 0.00 0.00 41 1018.5
20260906142150 68 12 0.0 2.0 0.00 0.00 0.00 41 1018.4
20260906141637 67 70 0.0 2.0 0.00 0.00 0.00 42 1018.3
20260906141118 67 137 0.0 2.0 0.00 0.00 0.00 41 1018.3
20260906140620 66 105 0.0 1.0 0.00 0.00 0.00 43 1018.3
20260906140130 66 105 0.0 1.0 0.00 0.00 0.00 40 1018.2
20260906135613 66 6 0.0 2.0 0.00 0.00 0.00 42 1018.1
20260906135114 67 1 0.0 1.0 0.00 0.00 0.00 41 1018.1
20260906134622 67 55 0.0 1.0 0.00 0.00 0.00 39 1018.0
20260906134124 68 55 1.0 2.0 0.00 0.00 0.00 39 1017.8
20260906133632 68 52 1.0 2.0 0.00 0.00 0.00 38 1017.8
20260906133114 68 86 0.0 2.0 0.00 0.00 0.00 39 1017.8
20260906132616 68 86 1.0 2.0 0.00 0.00 0.00 37 1017.7
20260906132118 68 75 0.0 3.0 0.00 0.00 0.00 37 1017.8
20260906131627 68 114 2.0 3.0 0.00 0.00 0.00 36 1017.7
20260906131129 68 77 0.0 3.0 0.00 0.00 0.00 37 1017.6
20260906130611 68 48 1.0 2.0 0.00 0.00 0.00 37 1017.6
20260906130120 67 97 1.0 2.0 0.00 0.00 0.00 37 1017.5
20260906125622 67 47 1.0 2.0 0.00 0.00 0.00 38 1017.6
20260906125131 67 63 1.0 2.0 0.00 0.00 0.00 38 1017.5
20260906124612 67 64 0.0 1.0 0.00 0.00 0.00 39 1017.5
20260906124113 67 70 1.0 1.0 0.00 0.00 0.00 38 1017.5
20260906123614 67 70 0.0 2.0 0.00 0.00 0.00 38 1017.5
20260906123123 67 70 1.0 2.0 0.00 0.00 0.00 37 1017.5
20260906122625 67 116 0.0 1.0 0.00 0.00 0.00 37 1017.5
20260906122135 67 116 1.0 2.0 0.00 0.00 0.00 38 1017.5
20260906121616 67 25 0.0 2.0 0.00 0.00 0.00 37 1017.5
20260906121117 67 72 0.0 1.0 0.00 0.00 0.00 37 1017.4
20260906120627 67 115 0.0 1.0 0.00 0.00 0.00 36 1017.5
20260906120128 68 116 0.0 1.0 0.00 0.00 0.00 35 1017.5
20260906115610 68 116 0.0 1.0 0.00 0.00 0.00 34 1017.5
20260906115119 69 116 0.0 1.0 0.00 0.00 0.00 34 1017.5
20260906114623 70 116 0.0 1.0 0.00 0.00 0.00 33 1017.4
20260906114124 69 134 0.0 6.0 0.00 0.00 0.00 32 1017.5
20260906113633 70 268 1.0 6.0 0.00 0.00 0.00 32 1017.5
20260906113115 69 134 1.0 4.0 0.00 0.00 0.00 33 1017.4
20260906112618 68 67 1.0 2.0 0.00 0.00 0.00 33 1017.5
20260906112127 68 56 0.0 1.0 0.00 0.00 0.00 33 1017.5
20260906111628 68 8 0.0 1.0 0.00 0.00 0.00 34 1017.5
20260906111111 68 58 0.0 1.0 0.00 0.00 0.00 34 1017.6
20260906110619 69 58 0.0 2.0 0.00 0.00 0.00 33 1017.5
20260906110121 70 58 0.0 2.0 0.00 0.00 0.00 32 1017.5
20260906105630 70 68 1.0 2.0 0.00 0.00 0.00 31 1017.5
20260906105132 70 56 0.0 1.0 0.00 0.00 0.00 31 1017.5
20260906104619 71 56 0.0 2.0 0.00 0.00 0.00 30 1017.5
20260906104121 72 56 0.0 2.0 0.00 0.00 0.00 29 1017.5
20260906103630 73 283 0.0 4.0 0.00 0.00 0.00 27 1017.5
20260906103133 74 270 0.0 6.0 0.00 0.00 0.00 26 1017.5
20260906102614 75 164 2.0 7.0 0.00 0.00 0.00 25 1017.4
20260906102123 75 150 4.0 10.0 0.00 0.00 0.00 25 1017.4
20260906101624 75 196 3.0 10.0 0.00 0.00 0.00 25 1017.3
20260906101133 75 160 2.0 9.0 0.00 0.00 0.00 24 1017.2
20260906100614 75 132 5.0 9.0 0.00 0.00 0.00 24 1017.2
20260906100116 75 129 4.0 10.0 0.00 0.00 0.00 24 1017.1
20260906095624 75 139 4.0 10.0 0.00 0.00 0.00 23 1017.2
20260906095126 75 151 4.0 12.0 0.00 0.00 0.00 23 1017.2
20260906094635 75 148 4.0 12.0 0.00 0.00 0.00 23 1017.1
20260906094117 75 193 5.0 8.0 0.00 0.00 0.00 23 1017.0
20260906093639 74 142 4.0 9.0 0.00 0.00 0.00 23 1017.1
20260906093127 74 136 3.0 9.0 0.00 0.00 0.00 24 1017.0
20260906092629 74 169 3.0 6.0 0.00 0.00 0.00 24 1017.1
20260906092112 74 99 2.0 5.0 0.00 0.00 0.00 24 1017.0
20260906091613 73 108 1.0 3.0 0.00 0.00 0.00 24 1017.0
20260906091121 74 154 1.0 8.0 0.00 0.00 0.00 24 1017.1
20260906090623 74 123 2.0 8.0 0.00 0.00 0.00 24 1017.2
20260906090132 73 79 1.0 6.0 0.00 0.00 0.00 25 1017.2
20260906085614 73 101 0.0 6.0 0.00 0.00 0.00 24 1017.3
20260906085122 73 192 2.0 3.0 0.00 0.00 0.00 24 1017.2
20260906084624 73 100 1.0 4.0 0.00 0.00 0.00 25 1017.2
20260906084153 73 110 1.0 4.0 0.00 0.00 0.00 25 1017.2
20260906083614 73 112 0.0 1.0 0.00 0.00 0.00 26 1017.2
20260906083116 73 144 0.0 3.0 0.00 0.00 0.00 25 1017.1
20260906082645 72 94 2.0 3.0 0.00 0.00 0.00 27 1017.2
20260906082126 72 68 0.0 2.0 0.00 0.00 0.00 28 1017.1
20260906081635 71 97 1.0 2.0 0.00 0.00 0.00 27 1017.1
20260906081116 72 60 0.0 1.0 0.00 0.00 0.00 28 1017.1
20260906080618 72 60 0.0 2.0 0.00 0.00 0.00 27 1017.1
20260906080144 73 60 1.0 3.0 0.00 0.00 0.00 28 1017.2
20260906075632 73 67 2.0 2.0 0.00 0.00 0.00 27 1017.2
20260906075113 73 70 0.0 2.0 0.00 0.00 0.00 27 1017.2
20260906074615 73 69 1.0 2.0 0.00 0.00 0.00 27 1017.2
20260906074124 74 70 1.0 2.0 0.00 0.00 0.00 26 1017.2
20260906073626 74 152 0.0 2.0 0.00 0.00 0.00 25 1017.1
20260906073134 75 152 0.0 3.0 0.00 0.00 0.00 24 1017.1
20260906072616 75 105 1.0 3.0 0.00 0.00 0.00 24 1017.0
20260906072118 75 137 1.0 4.0 0.00 0.00 0.00 24 1017.0
20260906071620 75 151 1.0 4.0 0.00 0.00 0.00 24 1017.0
20260906071136 76 206 1.0 6.0 0.00 0.00 0.00 24 1017.0
20260906070617 76 175 3.0 6.0 0.00 0.00 0.00 23 1017.0
20260906070126 76 121 2.0 4.0 0.00 0.00 0.00 23 1017.0
20260906065628 76 213 1.0 3.0 0.00 0.00 0.00 24 1017.0
20260906065130 77 210 1.0 4.0 0.00 0.00 0.00 23 1017.1
20260906064612 77 233 0.0 7.0 0.00 0.00 0.00 23 1017.0
20260906064121 77 233 2.0 7.0 0.00 0.00 0.00 23 1017.0
20260906063650 78 143 0.0 7.0 0.00 0.00 0.00 22 1016.9
20260906063131 78 134 2.0 10.0 0.00 0.00 0.00 22 1016.9
20260906062613 77 149 3.0 10.0 0.00 0.00 0.00 22 1016.8
20260906062115 78 116 1.0 7.0 0.00 0.00 0.00 22 1016.9
20260906061624 78 211 2.0 6.0 0.00 0.00 0.00 21 1016.7
20260906061126 78 217 2.0 7.0 0.00 0.00 0.00 20 1016.7
20260906060635 78 207 3.0 13.0 0.00 0.00 0.00 20 1016.7
20260906060117 79 229 2.0 13.0 0.00 0.00 0.00 20 1016.7
20260906055619 79 126 3.0 8.0 0.00 0.00 0.00 19 1016.6
20260906055129 79 178 4.0 8.0 0.00 0.00 0.00 19 1016.5
20260906054629 79 155 3.0 14.0 0.00 0.00 0.00 19 1016.5
20260906054112 79 131 5.0 14.0 0.00 0.00 0.00 18 1016.5
20260906053640 79 134 6.0 11.0 0.00 0.00 0.00 19 1016.5
20260906053122 78 124 3.0 13.0 0.00 0.00 0.00 19 1016.5
20260906052623 78 147 3.0 13.0 0.00 0.00 0.00 19 1016.5
20260906052132 78 154 3.0 6.0 0.00 0.00 0.00 19 1016.5
20260906051634 78 112 2.0 7.0 0.00 0.00 0.00 20 1016.5
20260906051121 78 73 2.0 6.0 0.00 0.00 0.00 20 1016.5
20260906050625 78 88 2.0 6.0 0.00 0.00 0.00 19 1016.5
20260906050134 78 145 2.0 5.0 0.00 0.00 0.00 19 1016.5
20260906045614 78 111 2.0 5.0 0.00 0.00 0.00 19 1016.5
20260906045115 78 102 0.0 5.0 0.00 0.00 0.00 19 1016.6
20260906044624 78 163 1.0 5.0 0.00 0.00 0.00 19 1016.5
20260906044126 78 91 2.0 7.0 0.00 0.00 0.00 19 1016.6
20260906043628 79 73 2.0 9.0 0.00 0.00 0.00 19 1016.5
20260906043117 78 125 3.0 7.0 0.00 0.00 0.00 18 1016.5
20260906042618 78 108 3.0 7.0 0.00 0.00 0.00 18 1016.5
20260906042127 78 132 3.0 6.0 0.00 0.00 0.00 19 1016.4
20260906041649 78 144 1.0 6.0 0.00 0.00 0.00 18 1016.4
20260906041136 78 101 1.0 5.0 0.00 0.00 0.00 19 1016.3
20260906040617 79 69 2.0 5.0 0.00 0.00 0.00 19 1016.3
20260906040126 79 99 2.0 5.0 0.00 0.00 0.00 19 1016.3
20260906035648 79 90 2.0 6.0 0.00 0.00 0.00 19 1016.3
20260906035136 79 212 1.0 6.0 0.00 0.00 0.00 19 1016.3
20260906034638 79 151 2.0 7.0 0.00 0.00 0.00 19 1016.1
20260906034126 80 102 1.0 9.0 0.00 0.00 0.00 18 1016.2
20260906033629 79 136 2.0 9.0 0.00 0.00 0.00 19 1016.0
20260906033158 79 120 1.0 4.0 0.00 0.00 0.00 19 1016.0
20260906032619 80 109 2.0 5.0 0.00 0.00 0.00 19 1016.0
20260906032121 80 169 2.0 5.0 0.00 0.00 0.00 19 1016.0
20260906031623 80 107 2.0 4.0 0.00 0.00 0.00 18 1015.8
20260906031133 80 137 1.0 4.0 0.00 0.00 0.00 18 1015.8
20260906030614 80 101 2.0 4.0 0.00 0.00 0.00 18 1015.8
20260906030122 80 147 2.0 5.0 0.00 0.00 0.00 19 1015.7
20260906025623 81 120 2.0 6.0 0.00 0.00 0.00 18 1015.7
20260906025133 81 115 4.0 6.0 0.00 0.00 0.00 18 1015.5
20260906024635 80 113 1.0 4.0 0.00 0.00 0.00 19 1015.5
20260906024115 80 103 1.0 4.0 0.00 0.00 0.00 19 1015.4
20260906023622 80 136 1.0 4.0 0.00 0.00 0.00 19 1015.4
20260906023125 80 122 0.0 4.0 0.00 0.00 0.00 19 1015.2
20260906022634 81 102 2.0 4.0 0.00 0.00 0.00 19 1015.1
20260906022114 81 156 2.0 5.0 0.00 0.00 0.00 18 1015.0
20260906021635 81 139 3.0 5.0 0.00 0.00 0.00 19 1015.0
20260906021121 81 205 1.0 5.0 0.00 0.00 0.00 19 1015.0
20260906020622 81 117 1.0 5.0 0.00 0.00 0.00 19 1015.0
20260906020131 82 113 1.0 5.0 0.00 0.00 0.00 19 1014.8
20260906015613 82 193 1.0 5.0 0.00 0.00 0.00 18 1014.9
20260906015113 83 114 1.0 1.0 0.00 0.00 0.00 18 1014.9
20260906014622 84 123 0.0 3.0 0.00 0.00 0.00 18 1014.9
20260906014123 85 195 0.0 3.0 0.00 0.00 0.00 18 1014.8
20260906013633 86 170 0.0 4.0 0.00 0.00 0.00 17 1014.7
20260906013115 87 204 2.0 5.0 0.00 0.00 0.00 16 1014.7
20260906012637 87 154 2.0 5.0 0.00 0.00 0.00 15 1014.7
20260906012125 88 188 1.0 3.0 0.00 0.00 0.00 16 1014.7
20260906011627 88 172 1.0 4.0 0.00 0.00 0.00 16 1014.9
20260906011115 88 204 2.0 9.0 0.00 0.00 0.00 16 1014.9
20260906010616 87 199 4.0 9.0 0.00 0.00 0.00 15 1014.9
20260906010123 88 188 2.0 9.0 0.00 0.00 0.00 15 1014.9
20260906005624 88 233 2.0 9.0 0.00 0.00 0.00 15 1014.9
20260906005154 89 167 2.0 7.0 0.00 0.00 0.00 15 1014.9
20260906004615 89 186 1.0 3.0 0.00 0.00 0.00 15 1014.8
20260906004116 89 158 2.0 5.0 0.00 0.00 0.00 15 1014.9
20260906003624 88 206 1.0 8.0 0.00 0.00 0.00 14 1014.9
20260906003126 88 179 5.0 9.0 0.00 0.00 0.00 13 1014.9
20260906002628 88 150 3.0 9.0 0.00 0.00 0.00 14 1015.0
20260906002137 89 198 3.0 8.0 0.00 0.00 0.00 14 1014.9
20260906001618 88 193 3.0 8.0 0.00 0.00 0.00 13 1014.9
20260906001120 89 123 3.0 8.0 0.00 0.00 0.00 13 1015.0
20260906000630 89 192 2.0 7.0 0.00 0.00 0.00 14 1015.0
20260906000131 89 165 3.0 8.0 0.00 0.00 0.00 14 1015.0
20260905235612 89 184 4.0 8.0 0.00 0.00 0.00 13 1015.1
20260905235121 89 221 2.0 6.0 0.00 0.00 0.00 14 1015.1
20260905234622 89 218 2.0 11.0 0.00 0.00 0.00 13 1015.1
20260905234152 88 194 4.0 11.0 0.00 0.00 0.00 14 1015.2
20260905233612 89 172 6.0 10.0 0.00 0.00 0.00 13 1015.2